CFE56D EGLC-LIRQ

Flight info

Callsign CFE56D
Flight time N/A
Altitude 23000
Route SOQQA M87 UMTUM L9 KONAN/N0453F370 UL607 REMBA M624 DIK N852 SUTAL DCT GTQ DCT POGOL DCT LASAT DCT DEVDI DCT RIPUS DCT RESIA DCT ADOSA/N0397F190 L612 ALBET M726 LUMAV Q58 BIKTU
Aircraft E190/M-SDE2E3GHIJ1LORVWXY/SB1

Departure

Time 2026-05-05 10:05
Airport London City Airport (EGLC)

Arrival

Time N/A
Airport Florence Airport, Peretola (LIRQ)
Time Latitude Longitude Altitude Speed Heading
2026-05-05 09:36 51.50407 0.05135 27 ft 0 kts 330°
2026-05-05 10:01 51.50415 0.05128 24 ft 3 kts 330°
2026-05-05 10:02 51.50439 0.05102 25 ft 6 kts 322°
2026-05-05 10:02 51.50460 0.05035 24 ft 8 kts 283°
2026-05-05 10:02 51.50466 0.04930 24 ft 10 kts 272°
2026-05-05 10:02 51.50468 0.04806 24 ft 13 kts 272°
2026-05-05 10:03 51.50473 0.04656 24 ft 14 kts 273°
2026-05-05 10:03 51.50476 0.04511 27 ft 8 kts 273°
2026-05-05 10:03 51.50481 0.04471 24 ft 4 kts 290°
2026-05-05 10:03 51.50503 0.04448 25 ft 4 kts 340°
2026-05-05 10:04 51.50536 0.04447 24 ft 5 kts 10°
2026-05-05 10:04 51.50554 0.04488 24 ft 5 kts 78°
2026-05-05 10:04 51.50554 0.04505 24 ft 0 kts 91°
2026-05-05 10:04 51.50554 0.04534 24 ft 19 kts 91°
2026-05-05 10:05 51.50537 0.05129 24 ft 86 kts 92°
2026-05-05 10:05 51.50500 0.06416 28 ft 142 kts 92°
2026-05-05 10:05 51.50435 0.08072 472 ft 155 kts 91°
2026-05-05 10:05 51.50411 0.09912 855 ft 175 kts 80°
2026-05-05 10:06 51.50954 0.11663 1337 ft 174 kts 40°
2026-05-05 10:06 51.51947 0.12703 2032 ft 171 kts 32°
2026-05-05 10:06 51.53000 0.13767 2570 ft 180 kts 31°
2026-05-05 10:06 51.54084 0.14814 3098 ft 187 kts 32°
2026-05-05 10:07 51.55200 0.15931 3153 ft 184 kts 38°
2026-05-05 10:07 51.56121 0.17414 3503 ft 195 kts 56°
2026-05-05 10:07 51.56669 0.19477 3849 ft 208 kts 79°
2026-05-05 10:07 51.56580 0.21793 4148 ft 219 kts 108°
2026-05-05 10:08 51.55945 0.24147 4486 ft 238 kts 111°
2026-05-05 10:08 51.55226 0.26581 4844 ft 247 kts 114°
2026-05-05 10:08 51.54417 0.29051 5192 ft 255 kts 116°
2026-05-05 10:08 51.53857 0.30727 5415 ft 260 kts 117°
2026-05-05 10:09 51.52695 0.34136 5891 ft 264 kts 117°
2026-05-05 10:09 51.51805 0.36741 6622 ft 268 kts 117°
2026-05-05 10:09 51.50901 0.39376 7295 ft 272 kts 117°
2026-05-05 10:09 51.49976 0.42052 7954 ft 277 kts 118°
2026-05-05 10:10 51.49031 0.44771 8619 ft 281 kts 118°
2026-05-05 10:10 51.48069 0.47535 9291 ft 287 kts 118°
2026-05-05 10:10 51.47086 0.50350 9975 ft 292 kts 118°
2026-05-05 10:10 51.46419 0.52255 10260 ft 302 kts 118°
2026-05-05 10:11 51.45364 0.55246 10708 ft 314 kts 118°
2026-05-05 10:11 51.44271 0.58341 11286 ft 322 kts 119°
2026-05-05 10:11 51.43164 0.61481 12003 ft 326 kts 118°
2026-05-05 10:11 51.42085 0.64710 12612 ft 333 kts 111°
2026-05-05 10:12 51.41296 0.68218 13265 ft 341 kts 107°
2026-05-05 10:12 51.40552 0.71877 13879 ft 350 kts 107°
2026-05-05 10:12 51.39771 0.75650 14416 ft 360 kts 108°
2026-05-05 10:12 51.38972 0.79471 15115 ft 364 kts 108°
2026-05-05 10:13 51.38165 0.83321 15903 ft 365 kts 108°
2026-05-05 10:13 51.37350 0.87190 16669 ft 367 kts 109°
2026-05-05 10:13 51.36532 0.91076 17419 ft 370 kts 109°
2026-05-05 10:13 51.35706 0.94991 18127 ft 374 kts 109°
2026-05-05 10:14 51.34871 0.98940 18782 ft 376 kts 109°
2026-05-05 10:14 51.34041 1.02858 19455 ft 377 kts 110°
2026-05-05 10:14 51.33196 1.06842 20066 ft 381 kts 110°
2026-05-05 10:14 51.32346 1.10847 20678 ft 383 kts 110°
2026-05-05 10:15 51.31489 1.14892 21238 ft 384 kts 111°
2026-05-05 10:15 51.30623 1.18948 21805 ft 386 kts 111°
2026-05-05 10:15 51.29755 1.23030 22305 ft 390 kts 110°
2026-05-05 10:15 51.28880 1.27136 22771 ft 393 kts 110°
2026-05-05 10:16 51.27991 1.31303 23280 ft 396 kts 111°
2026-05-05 10:16 51.27098 1.35493 23753 ft 399 kts 111°
2026-05-05 10:16 51.26196 1.39724 24141 ft 405 kts 110°
2026-05-05 10:16 51.25279 1.43991 24557 ft 408 kts 110°
2026-05-05 10:17 51.24356 1.48292 25034 ft 410 kts 111°
2026-05-05 10:17 51.23423 1.52620 25454 ft 413 kts 111°
2026-05-05 10:17 51.22480 1.56977 25836 ft 417 kts 111°
2026-05-05 10:17 51.21529 1.61368 26213 ft 421 kts 111°
2026-05-05 10:18 51.20573 1.65786 26611 ft 423 kts 111°
2026-05-05 10:18 51.19610 1.70240 26977 ft 426 kts 111°
2026-05-05 10:18 51.18640 1.74718 27327 ft 428 kts 111°
2026-05-05 10:18 51.17661 1.79218 27656 ft 431 kts 111°
2026-05-05 10:19 51.16689 1.83692 27982 ft 434 kts 112°
2026-05-05 10:19 51.15692 1.88242 28319 ft 436 kts 111°
2026-05-05 10:19 51.14689 1.92819 28567 ft 439 kts 111°
2026-05-05 10:19 51.13676 1.97434 28873 ft 442 kts 111°